Location: Dackenheim
(49.5215°N, 8.1854°E)
Time: 19:23:21
(UTC+00:00)

Cosmos 1605 Rocket - Pass Details

Date: 19 May 2025
Orbit: 943 x 1005 km, 82.9° (Epoch: 20 June)

Event Time Altitude Azimuth Distance (km) Brightness Sun altitude
Rises 23:23:59 0° 347° (NNW) 3,729 8.5 -20.5°
Reaches altitude 10° 23:26:36 10° 342° (NNW) 2,769 7.4 -20.5°
Maximum altitude 23:32:40 50° 269° (W) 1,240 4.5 -20.5°
Enters shadow 23:35:18 31° 214° (SW) 1,634 4.7 -20.4°
